This demonstration page uses our WeatherBlox Daily Observations layout. Learn more.

Left ArrowRight Arrow

Hourly Observations for May 4, 2019

Temp ( °F °C ) Dew Point ( °F °C ) Humidity (%) Winds ( mph kmh ) Pressure ( in mb ) Visibility ( mi km ) Precip ( " mm )
12:52 am 00:52 Mostly Cloudy 56 13.3 42 5.6 60 60 SSE 9 15 29.99 1016 10 16 0.00 0.03
1:52 am 01:52 Clear 52 11.1 42 5.6 69 69 SSE 7 11 29.99 1016 10 16 0.00 0.00
2:52 am 02:52 Clear 50 10 42 5.6 74 74 SE 7 11 29.98 1015 10 16 0.00 0.00
3:52 am 03:52 Partly Cloudy 50 10 42 5.6 74 74 SSE 8 13 29.97 1015 10 16 0.00 0.00
4:52 am 04:52 Mostly Cloudy 50 10 43 6.1 77 77 SSE 8 13 29.97 1015 10 16 0.00 0.00
5:38 am 05:38 Partly Cloudy 49 9.4 43 6.1 80 80 SSE 9 15 29.99 1016 10 16 0.00 0.00
5:52 am 05:52 Partly Cloudy 48 8.9 43 6.1 83 83 SSE 8 13 29.98 1015 10 16 0.00 0.00
6:52 am 06:52 Mostly Sunny 50 10 44 6.7 80 80 SSE 6 9 30.00 1016 10 16 0.00 0.00
7:52 am 07:52 Sunny 54 12.2 46 7.8 75 75 S 8 13 30.00 1016 10 16 0.00 0.00
8:52 am 08:52 Mostly Sunny 57 13.9 49 9.4 74 74 SSW 6 9 30.00 1016 10 16 0.00 0.00
9:52 am 09:52 Mostly Sunny 61 16.1 49 9.4 65 65 Calm 29.98 1015 10 16 0.00 0.00
10:52 am 10:52 Sunny 64 17.8 49 9.4 58 58 VRB 3 6 29.97 1015 10 16 0.00 0.00
11:52 am 11:52 Mostly Sunny 67 19.4 48 8.9 51 51 ESE 3 6 29.96 1014 10 16 0.00 0.00
12:52 pm 12:52 Mostly Sunny 71 21.7 45 7.2 39 39 ENE 6 9 29.94 1014 10 16 0.00 0.00
1:52 pm 13:52 Partly Cloudy 72 22.2 43 6.1 35 35 E 6 9 29.91 1013 10 16 0.00 0.00
2:52 pm 14:52 Partly Cloudy 74 23.3 44 6.7 34 34 SSE 10 17 29.89 1012 10 16 0.00 0.00
3:52 pm 15:52 Mostly Sunny 74 23.3 44 6.7 34 34 ESE 10 17 29.85 1011 10 16 0.00 0.00
4:52 pm 16:52 Mostly Sunny 74 23.3 43 6.1 33 33 S 7 11 29.83 1010 10 16 0.00 0.00
5:52 pm 17:52 Mostly Cloudy 74 23.3 45 7.2 36 36 SSW 10 17 29.82 1010 10 16 0.00 0.00
6:52 pm 18:52 Mostly Cloudy 71 21.7 50 10 47 47 SSE 13 20 29.81 1010 10 16 0.00 0.00
7:52 pm 19:52 Mostly Cloudy 69 20.6 50 10 51 51 S 13 20 29.80 1009 10 16 0.00 0.00
8:52 pm 20:52 Mostly Cloudy 67 19.4 52 11.1 59 59 S 15 24 29.80 1009 10 16 0.00 0.00
9:52 pm 21:52 Mostly Cloudy 67 19.4 53 11.7 61 61 S 15 24 29.81 1010 10 16 0.00 0.00
10:21 pm 22:21 Mostly Cloudy with Nearby Thunderstorms 61 16.1 48 8.9 63 63 NNW 16 26 29.86 1011 10 16 0.00 0.00
10:48 pm 22:48 Cloudy with Light Rain 57 14 54 12 88 88 N 15 24 29.89 1012 8 13 0.04 1.02
10:52 pm 22:52 Cloudy with Light Rain 57 13.9 53 11.7 87 87 NNE 15 24 29.88 1012 8 13 0.04 1.02
11:52 pm 23:52 Mostly Cloudy 58 14.4 53 11.7 84 84 E 5 7 29.86 1011 10 16 0.00 0.03

Powered by AerisWeather